| time (UTC) | temp F | wind direction | speed knots | gust knots | rain 1hr in | rain 24hr in | rain mn in | humidity % | barometer mb |
| 20260508073049 | 40 | 141 | 1.7 | 3.5 | 0.00 | 0.00 | 0.00 | 90 | 1016.3 |
| 20260508072545 | 40 | 114 | 2.6 | 3.5 | 0.00 | 0.00 | 0.00 | 90 | 1016.5 |
| 20260508072042 | 40 | 101 | 2.6 | 5.2 | 0.00 | 0.00 | 0.00 | 90 | 1016.4 |
| 20260508071540 | 40 | 107 | 2.6 | 2.6 | 0.00 | 0.00 | 0.00 | 90 | 1016.5 |
| 20260508071038 | 40 | 124 | 1.7 | 5.2 | 0.00 | 0.00 | 0.00 | 90 | 1016.5 |
| 20260508070535 | 40 | 112 | 2.6 | 3.5 | 0.00 | 0.00 | 0.00 | 89 | 1016.4 |
| 20260508070034 | 40 | 108 | 1.7 | 2.6 | 0.00 | 0.00 | 0.00 | 89 | 1016.6 |
| 20260508065531 | 40 | 111 | 2.6 | 2.6 | 0.00 | 0.00 | 0.00 | 89 | 1016.6 |
| 20260508065029 | 40 | 106 | 1.7 | 2.6 | 0.00 | 0.00 | 0.00 | 89 | 1016.6 |
| 20260508064526 | 40 | 105 | 0.9 | 3.5 | 0.00 | 0.00 | 0.00 | 89 | 1016.5 |
| 20260508064024 | 40 | 108 | 1.7 | 3.5 | 0.00 | 0.00 | 0.00 | 89 | 1016.4 |
| 20260508063521 | 40 | 110 | 1.7 | 5.2 | 0.00 | 0.00 | 0.00 | 88 | 1016.3 |
| 20260508063019 | 40 | 112 | 1.7 | 2.6 | 0.00 | 0.00 | 0.00 | 88 | 1016.4 |
| 20260508062516 | 40 | 100 | 0.9 | 1.7 | 0.00 | 0.00 | 0.00 | 88 | 1016.5 |
| 20260508062013 | 40 | 102 | 1.7 | 2.6 | 0.00 | 0.00 | 0.00 | 88 | 1016.4 |
| 20260508061511 | 40 | 115 | 1.7 | 3.5 | 0.00 | 0.00 | 0.00 | 88 | 1016.4 |
| 20260508061007 | 41 | 96 | 2.6 | 5.2 | 0.00 | 0.00 | 0.00 | 88 | 1016.5 |
| 20260508060504 | 41 | 106 | 3.5 | 5.2 | 0.00 | 0.00 | 0.00 | 87 | 1016.7 |
| 20260508060001 | 41 | 112 | 2.6 | 2.6 | 0.00 | 0.00 | 0.00 | 87 | 1016.7 |
| 20260508055457 | 41 | 155 | 1.7 | 2.6 | 0.00 | 0.00 | 0.00 | 87 | 1016.7 |
| 20260508054953 | 41 | 152 | 1.7 | 2.6 | 0.00 | 0.00 | 0.00 | 87 | 1016.8 |
| 20260508054450 | 41 | 116 | 2.6 | 3.5 | 0.00 | 0.00 | 0.00 | 87 | 1016.8 |
| 20260508053947 | 41 | 114 | 1.7 | 2.6 | 0.00 | 0.00 | 0.00 | 87 | 1016.9 |
| 20260508053444 | 40 | 121 | 2.6 | 2.6 | 0.00 | 0.00 | 0.00 | 87 | 1016.7 |
| 20260508052942 | 40 | 35 | 0.0 | 0.9 | 0.00 | 0.00 | 0.00 | 86 | 1016.9 |
| 20260508052439 | 40 | 34 | 0.9 | 0.9 | 0.00 | 0.00 | 0.00 | 86 | 1017.0 |
| 20260508051935 | 40 | 17 | 0.0 | 0.0 | 0.00 | 0.00 | 0.00 | 86 | 1017.0 |
| 20260508051431 | 39 | 17 | 0.0 | 0.0 | 0.00 | 0.00 | 0.00 | 85 | 1017.0 |
| 20260508050928 | 39 | 17 | 0.0 | 0.0 | 0.00 | 0.00 | 0.00 | 85 | 1016.7 |
| 20260508050424 | 40 | 17 | 0.0 | 0.0 | 0.00 | 0.00 | 0.00 | 85 | 1016.9 |
| 20260508045921 | 39 | 17 | 0.0 | 0.0 | 0.00 | 0.00 | 0.00 | 84 | 1016.8 |
| 20260508045419 | 40 | 17 | 0.0 | 0.0 | 0.00 | 0.00 | 0.00 | 84 | 1016.8 |
| 20260508044916 | 40 | 17 | 0.0 | 0.0 | 0.00 | 0.00 | 0.00 | 84 | 1016.8 |
| 20260508044413 | 40 | 17 | 0.0 | 0.0 | 0.00 | 0.00 | 0.00 | 84 | 1016.7 |
| 20260508043908 | 40 | 17 | 0.0 | 0.0 | 0.00 | 0.00 | 0.00 | 83 | 1016.9 |
| 20260508043406 | 40 | 17 | 0.0 | 0.0 | 0.00 | 0.00 | 0.00 | 83 | 1016.7 |
| 20260508042902 | 40 | 17 | 0.0 | 0.0 | 0.00 | 0.00 | 0.00 | 82 | 1016.8 |
| 20260508042400 | 41 | 17 | 0.0 | 0.0 | 0.00 | 0.00 | 0.00 | 82 | 1016.9 |
| 20260508041856 | 41 | 17 | 0.0 | 0.0 | 0.00 | 0.00 | 0.00 | 82 | 1016.6 |
| 20260508041353 | 41 | 17 | 0.0 | 0.0 | 0.00 | 0.00 | 0.00 | 82 | 1016.8 |
| 20260508040849 | 41 | 17 | 0.0 | 0.0 | 0.00 | 0.00 | 0.00 | 81 | 1016.5 |
| 20260508040347 | 42 | 17 | 0.0 | 0.0 | 0.00 | 0.00 | 0.00 | 81 | 1016.5 |
| 20260508035844 | 42 | 17 | 0.0 | 0.9 | 0.00 | 0.00 | 0.00 | 81 | 1016.6 |
| 20260508035341 | 42 | 17 | 0.0 | 0.0 | 0.00 | 0.00 | 0.00 | 80 | 1016.5 |
| 20260508034838 | 42 | 17 | 0.0 | 0.0 | 0.00 | 0.00 | 0.00 | 80 | 1016.5 |
| 20260508034336 | 42 | 17 | 0.9 | 0.9 | 0.00 | 0.00 | 0.00 | 79 | 1016.3 |
| 20260508033832 | 43 | 16 | 0.0 | 0.0 | 0.00 | 0.00 | 0.00 | 79 | 1016.3 |
| 20260508033330 | 43 | 16 | 0.0 | 0.9 | 0.00 | 0.00 | 0.00 | 79 | 1016.4 |
| 20260508032828 | 43 | 16 | 0.0 | 0.0 | 0.00 | 0.00 | 0.00 | 78 | 1016.5 |
| 20260508032325 | 42 | 16 | 0.0 | 0.0 | 0.00 | 0.00 | 0.00 | 78 | 1016.4 |
| 20260508031821 | 43 | 16 | 0.0 | 0.0 | 0.00 | 0.00 | 0.00 | 77 | 1016.4 |
| 20260508031318 | 43 | 16 | 0.0 | 0.9 | 0.00 | 0.00 | 0.00 | 77 | 1016.5 |
| 20260508030814 | 44 | 16 | 0.0 | 0.9 | 0.00 | 0.00 | 0.00 | 77 | 1016.4 |
| 20260508030312 | 44 | 16 | 0.9 | 0.9 | 0.00 | 0.00 | 0.00 | 76 | 1016.6 |
| 20260508025808 | 44 | 16 | 0.0 | 0.0 | 0.00 | 0.00 | 0.00 | 75 | 1016.6 |
| 20260508025306 | 44 | 16 | 0.0 | 0.9 | 0.00 | 0.00 | 0.00 | 75 | 1016.5 |
| 20260508024802 | 45 | 16 | 0.0 | 0.9 | 0.00 | 0.00 | 0.00 | 75 | 1016.5 |
| 20260508024259 | 45 | 16 | 0.0 | 1.7 | 0.00 | 0.00 | 0.00 | 75 | 1016.5 |
| 20260508023756 | 44 | 11 | 0.9 | 1.7 | 0.00 | 0.00 | 0.00 | 75 | 1016.5 |
| 20260508023252 | 45 | 357 | 0.0 | 0.0 | 0.00 | 0.00 | 0.00 | 74 | 1016.4 |
| 20260508022748 | 45 | 352 | 0.0 | 0.9 | 0.00 | 0.00 | 0.00 | 74 | 1016.5 |
| 20260508022245 | 45 | 349 | 0.0 | 0.0 | 0.00 | 0.00 | 0.00 | 73 | 1016.3 |
| 20260508021742 | 46 | 349 | 0.0 | 0.9 | 0.00 | 0.00 | 0.00 | 73 | 1016.3 |
| 20260508021237 | 46 | 348 | 0.0 | 0.9 | 0.00 | 0.00 | 0.00 | 73 | 1016.1 |
| 20260508020734 | 47 | 347 | 0.9 | 1.7 | 0.00 | 0.00 | 0.00 | 71 | 1016.3 |
| 20260508020232 | 47 | 17 | 0.9 | 1.7 | 0.00 | 0.00 | 0.00 | 71 | 1016.1 |
| 20260508015729 | 47 | 27 | 0.0 | 0.0 | 0.00 | 0.00 | 0.00 | 70 | 1015.8 |
| 20260508015226 | 47 | 26 | 0.9 | 0.9 | 0.00 | 0.00 | 0.00 | 69 | 1015.9 |
| 20260508014723 | 47 | 17 | 0.0 | 0.0 | 0.00 | 0.00 | 0.00 | 68 | 1015.8 |
| 20260508014220 | 47 | 11 | 0.0 | 0.0 | 0.00 | 0.00 | 0.00 | 68 | 1015.7 |
| 20260508013715 | 47 | 3 | 0.0 | 0.0 | 0.00 | 0.00 | 0.00 | 68 | 1015.5 |
| 20260508013212 | 48 | 3 | 0.0 | 0.0 | 0.00 | 0.00 | 0.00 | 67 | 1015.6 |
| 20260508012710 | 48 | 3 | 0.0 | 0.0 | 0.00 | 0.00 | 0.00 | 67 | 1015.6 |
| 20260508012206 | 48 | 3 | 0.0 | 0.9 | 0.00 | 0.00 | 0.00 | 66 | 1015.6 |
| 20260508011705 | 48 | 3 | 0.0 | 0.0 | 0.00 | 0.00 | 0.00 | 65 | 1015.5 |
| 20260508011202 | 48 | 3 | 0.0 | 0.0 | 0.00 | 0.00 | 0.00 | 63 | 1015.4 |
| 20260508010659 | 49 | 3 | 0.0 | 0.0 | 0.00 | 0.00 | 0.00 | 62 | 1015.5 |
| 20260508010156 | 49 | 3 | 0.0 | 0.0 | 0.00 | 0.00 | 0.00 | 60 | 1015.4 |
| 20260508005653 | 50 | 3 | 0.0 | 0.0 | 0.00 | 0.00 | 0.00 | 58 | 1015.1 |
| 20260508005150 | 51 | 3 | 0.0 | 0.0 | 0.00 | 0.00 | 0.00 | 56 | 1015.2 |
| 20260508004646 | 51 | 3 | 0.0 | 0.0 | 0.00 | 0.00 | 0.00 | 54 | 1015.1 |
| 20260508004142 | 52 | 2 | 0.0 | 0.0 | 0.00 | 0.00 | 0.00 | 54 | 1015.2 |
| 20260508003639 | 53 | 3 | 0.0 | 0.0 | 0.00 | 0.00 | 0.00 | 53 | 1015.1 |
| 20260508003136 | 53 | 49 | 0.0 | 0.0 | 0.00 | 0.00 | 0.00 | 51 | 1014.9 |
| 20260508002632 | 54 | 49 | 0.0 | 0.9 | 0.00 | 0.00 | 0.00 | 50 | 1015.0 |
| 20260508002131 | 54 | 50 | 0.0 | 0.9 | 0.00 | 0.00 | 0.00 | 50 | 1014.8 |
| 20260508001625 | 55 | 331 | 0.9 | 0.9 | 0.00 | 0.00 | 0.00 | 50 | 1014.8 |
| 20260508001122 | 55 | 314 | 0.9 | 3.5 | 0.00 | 0.00 | 0.00 | 47 | 1014.8 |
| 20260508000618 | 56 | 357 | 0.0 | 1.7 | 0.00 | 0.00 | 0.00 | 48 | 1014.6 |
| 20260508000116 | 56 | 325 | 0.9 | 1.7 | 0.00 | 0.00 | 0.00 | 47 | 1014.8 |
| 20260507235612 | 56 | 319 | 2.6 | 3.5 | 0.00 | 0.00 | 0.00 | 46 | 1014.5 |
| 20260507235110 | 57 | 350 | 0.0 | 0.9 | 0.00 | 0.00 | 0.00 | 47 | 1014.5 |
| 20260507234606 | 58 | 294 | 0.0 | 0.0 | 0.00 | 0.00 | 0.00 | 44 | 1014.2 |
| 20260507234102 | 58 | 306 | 0.9 | 2.6 | 0.00 | 0.00 | 0.00 | 44 | 1014.4 |
| 20260507233559 | 58 | 340 | 0.9 | 2.6 | 0.00 | 0.00 | 0.00 | 43 | 1014.3 |
| 20260507233058 | 59 | 262 | 1.7 | 5.2 | 0.00 | 0.00 | 0.00 | 42 | 1014.3 |
| 20260507232553 | 58 | 288 | 1.7 | 3.5 | 0.00 | 0.00 | 0.00 | 41 | 1014.2 |
| 20260507232051 | 59 | 313 | 0.9 | 3.5 | 0.00 | 0.00 | 0.00 | 40 | 1013.9 |
| 20260507231547 | 59 | 338 | 1.7 | 5.2 | 0.00 | 0.00 | 0.00 | 40 | 1014.0 |
| 20260507231045 | 59 | 293 | 0.0 | 1.7 | 0.00 | 0.00 | 0.00 | 41 | 1014.0 |
| 20260507230541 | 59 | 313 | 0.0 | 0.9 | 0.00 | 0.00 | 0.00 | 39 | 1014.0 |
| 20260507230038 | 59 | 331 | 4.3 | 6.1 | 0.00 | 0.00 | 0.00 | 38 | 1013.9 |
| 20260507225533 | 60 | 319 | 1.7 | 5.2 | 0.00 | 0.00 | 0.00 | 38 | 1013.9 |
| 20260507225030 | 61 | 324 | 1.7 | 2.6 | 0.00 | 0.00 | 0.00 | 38 | 1013.8 |
| 20260507224526 | 61 | 343 | 1.7 | 2.6 | 0.00 | 0.00 | 0.00 | 39 | 1013.7 |
| 20260507224022 | 62 | 319 | 0.9 | 1.7 | 0.00 | 0.00 | 0.00 | 41 | 1013.9 |
| 20260507223518 | 61 | 316 | 0.9 | 1.7 | 0.00 | 0.00 | 0.00 | 39 | 1013.7 |
| 20260507223016 | 62 | 317 | 0.0 | 0.0 | 0.00 | 0.00 | 0.00 | 40 | 1013.5 |
| 20260507222513 | 61 | 230 | 0.9 | 5.2 | 0.00 | 0.00 | 0.00 | 41 | 1013.6 |
| 20260507222009 | 62 | 284 | 0.9 | 1.7 | 0.00 | 0.00 | 0.00 | 39 | 1013.7 |
| 20260507221506 | 63 | 333 | 3.5 | 5.2 | 0.00 | 0.00 | 0.00 | 37 | 1013.3 |
| 20260507221002 | 64 | 340 | 0.0 | 0.9 | 0.00 | 0.00 | 0.00 | 39 | 1013.4 |
| 20260507220500 | 63 | 263 | 0.0 | 1.7 | 0.00 | 0.00 | 0.00 | 40 | 1013.2 |
| 20260507215956 | 62 | 239 | 1.7 | 1.7 | 0.00 | 0.00 | 0.00 | 41 | 1013.1 |
| 20260507215453 | 63 | 350 | 0.9 | 2.6 | 0.00 | 0.00 | 0.00 | 41 | 1013.1 |
| 20260507214951 | 61 | 347 | 0.9 | 3.5 | 0.00 | 0.00 | 0.00 | 40 | 1013.2 |
| 20260507214448 | 61 | 316 | 0.9 | 1.7 | 0.00 | 0.00 | 0.00 | 40 | 1013.2 |
| 20260507213943 | 64 | 267 | 1.7 | 2.6 | 0.00 | 0.00 | 0.00 | 39 | 1013.2 |
| 20260507213440 | 63 | 213 | 2.6 | 5.2 | 0.00 | 0.00 | 0.00 | 36 | 1012.9 |
| 20260507212937 | 63 | 315 | 2.6 | 3.5 | 0.00 | 0.00 | 0.00 | 38 | 1012.8 |
| 20260507212432 | 62 | 318 | 2.6 | 5.2 | 0.00 | 0.00 | 0.00 | 38 | 1013.1 |
| 20260507211930 | 63 | 250 | 1.7 | 1.7 | 0.00 | 0.00 | 0.00 | 40 | 1012.9 |
| 20260507211426 | 61 | 54 | 0.9 | 2.6 | 0.00 | 0.00 | 0.00 | 41 | 1012.8 |
| 20260507210923 | 63 | 350 | 2.6 | 5.2 | 0.00 | 0.00 | 0.00 | 40 | 1012.7 |
| 20260507210420 | 64 | 321 | 5.2 | 7.8 | 0.00 | 0.00 | 0.00 | 38 | 1012.9 |
| 20260507205917 | 62 | 219 | 0.9 | 1.7 | 0.00 | 0.00 | 0.00 | 42 | 1012.8 |
| 20260507205414 | 61 | 349 | 2.6 | 7.0 | 0.00 | 0.00 | 0.00 | 37 | 1012.7 |
| 20260507204910 | 62 | 268 | 1.7 | 5.2 | 0.00 | 0.00 | 0.00 | 37 | 1012.8 |
| 20260507204406 | 63 | 184 | 0.0 | 7.0 | 0.00 | 0.00 | 0.00 | 37 | 1012.7 |
| 20260507203904 | 63 | 299 | 2.6 | 3.5 | 0.00 | 0.00 | 0.00 | 37 | 1012.6 |
| 20260507203402 | 63 | 13 | 5.2 | 8.7 | 0.00 | 0.00 | 0.00 | 38 | 1012.6 |
| 20260507202858 | 63 | 342 | 2.6 | 3.5 | 0.00 | 0.00 | 0.00 | 40 | 1012.6 |
| 20260507202355 | 64 | 318 | 0.9 | 2.6 | 0.00 | 0.00 | 0.00 | 40 | 1012.6 |
| 20260507201850 | 64 | 239 | 5.2 | 6.1 | 0.00 | 0.00 | 0.00 | 39 | 1012.7 |
| 20260507201346 | 61 | 359 | 0.9 | 2.6 | 0.00 | 0.00 | 0.00 | 39 | 1012.6 |
| 20260507200842 | 62 | 24 | 5.2 | 7.8 | 0.00 | 0.00 | 0.00 | 39 | 1013.0 |
| 20260507200338 | 62 | 333 | 1.7 | 5.2 | 0.00 | 0.00 | 0.00 | 39 | 1013.1 |
| 20260507195835 | 63 | 327 | 0.9 | 5.2 | 0.00 | 0.00 | 0.00 | 38 | 1013.0 |
| 20260507195332 | 63 | 266 | 0.9 | 2.6 | 0.00 | 0.00 | 0.00 | 38 | 1012.9 |
| 20260507194829 | 64 | 307 | 0.9 | 5.2 | 0.00 | 0.00 | 0.00 | 38 | 1013.0 |
| 20260507194325 | 64 | 312 | 1.7 | 2.6 | 0.00 | 0.00 | 0.00 | 36 | 1013.1 |
| 20260507193822 | 64 | 70 | 0.9 | 1.7 | 0.00 | 0.00 | 0.00 | 39 | 1013.2 |
| 20260507193320 | 62 | 327 | 2.6 | 5.2 | 0.00 | 0.00 | 0.00 | 39 | 1013.2 |
| 20260507192815 | 64 | 129 | 2.6 | 3.5 | 0.00 | 0.00 | 0.00 | 39 | 1013.2 |
| 20260507192312 | 63 | 273 | 0.9 | 7.0 | 0.00 | 0.00 | 0.00 | 38 | 1013.4 |
| 20260507191808 | 65 | 279 | 2.6 | 5.2 | 0.00 | 0.00 | 0.00 | 42 | 1013.4 |
| 20260507191305 | 64 | 320 | 2.6 | 2.6 | 0.00 | 0.00 | 0.00 | 37 | 1013.5 |
| 20260507190802 | 65 | 359 | 1.7 | 3.5 | 0.00 | 0.00 | 0.00 | 36 | 1013.3 |
| 20260507190300 | 66 | 217 | 0.0 | 0.9 | 0.00 | 0.00 | 0.00 | 41 | 1013.5 |
| 20260507185758 | 64 | 287 | 1.7 | 3.5 | 0.00 | 0.00 | 0.00 | 40 | 1013.3 |
| 20260507185255 | 64 | 293 | 1.7 | 3.5 | 0.00 | 0.00 | 0.00 | 38 | 1013.4 |
| 20260507184752 | 63 | 49 | 0.9 | 6.1 | 0.00 | 0.00 | 0.00 | 38 | 1013.4 |
| 20260507184250 | 63 | 313 | 3.5 | 7.8 | 0.00 | 0.00 | 0.00 | 37 | 1013.3 |
| 20260507183747 | 65 | 243 | 1.7 | 3.5 | 0.00 | 0.00 | 0.00 | 40 | 1013.4 |
| 20260507183244 | 64 | 57 | 1.7 | 3.5 | 0.00 | 0.00 | 0.00 | 39 | 1013.3 |
| 20260507182741 | 63 | 291 | 0.9 | 3.5 | 0.00 | 0.00 | 0.00 | 39 | 1013.7 |
| 20260507182236 | 64 | 297 | 0.9 | 6.1 | 0.00 | 0.00 | 0.00 | 40 | 1013.7 |
| 20260507181733 | 64 | 308 | 1.7 | 1.7 | 0.00 | 0.00 | 0.00 | 42 | 1013.5 |
| 20260507181229 | 63 | 354 | 0.9 | 2.6 | 0.00 | 0.00 | 0.00 | 46 | 1013.4 |
| 20260507180726 | 63 | 240 | 0.9 | 2.6 | 0.00 | 0.00 | 0.00 | 41 | 1013.6 |
| 20260507180223 | 63 | 288 | 0.9 | 3.5 | 0.00 | 0.00 | 0.00 | 43 | 1013.9 |
| 20260507175718 | 62 | 341 | 0.9 | 2.6 | 0.00 | 0.00 | 0.00 | 43 | 1013.6 |
| 20260507175216 | 63 | 275 | 0.9 | 1.7 | 0.00 | 0.00 | 0.00 | 41 | 1013.6 |
| 20260507174713 | 62 | 326 | 0.9 | 1.7 | 0.00 | 0.00 | 0.00 | 41 | 1013.8 |
| 20260507174211 | 62 | 119 | 1.7 | 2.6 | 0.00 | 0.00 | 0.00 | 41 | 1013.8 |
| 20260507173708 | 62 | 284 | 0.0 | 1.7 | 0.00 | 0.00 | 0.00 | 44 | 1013.9 |
| 20260507173205 | 61 | 19 | 1.7 | 6.1 | 0.00 | 0.00 | 0.00 | 43 | 1013.9 |
| 20260507172702 | 61 | 226 | 0.9 | 1.7 | 0.00 | 0.00 | 0.00 | 46 | 1014.0 |
| 20260507172159 | 61 | 219 | 0.0 | 2.6 | 0.00 | 0.00 | 0.00 | 43 | 1013.9 |
| 20260507171658 | 62 | 304 | 0.0 | 1.7 | 0.00 | 0.00 | 0.00 | 45 | 1013.9 |
| 20260507171156 | 62 | 240 | 2.6 | 2.6 | 0.00 | 0.00 | 0.00 | 45 | 1014.2 |
| 20260507170653 | 60 | 296 | 0.9 | 1.7 | 0.00 | 0.00 | 0.00 | 49 | 1014.2 |
| 20260507170150 | 60 | 286 | 0.9 | 0.9 | 0.00 | 0.00 | 0.00 | 48 | 1014.3 |
| 20260507165645 | 59 | 333 | 0.9 | 2.6 | 0.00 | 0.00 | 0.00 | 46 | 1014.3 |
| 20260507165142 | 60 | 282 | 0.0 | 0.9 | 0.00 | 0.00 | 0.00 | 47 | 1014.8 |
| 20260507164638 | 60 | 254 | 0.0 | 2.6 | 0.00 | 0.00 | 0.00 | 47 | 1014.6 |
| 20260507164135 | 59 | 331 | 0.0 | 1.7 | 0.00 | 0.00 | 0.00 | 47 | 1014.3 |
| 20260507163632 | 60 | 315 | 0.0 | 3.5 | 0.00 | 0.00 | 0.00 | 48 | 1014.5 |
| 20260507163130 | 61 | 319 | 2.6 | 3.5 | 0.00 | 0.00 | 0.00 | 49 | 1014.5 |
| 20260507162626 | 60 | 329 | 0.9 | 2.6 | 0.00 | 0.00 | 0.00 | 48 | 1014.4 |
| 20260507162122 | 60 | 288 | 1.7 | 1.7 | 0.00 | 0.00 | 0.00 | 48 | 1014.6 |
| 20260507161618 | 60 | 175 | 1.7 | 7.8 | 0.00 | 0.00 | 0.00 | 45 | 1014.5 |
| 20260507161115 | 59 | 160 | 0.9 | 1.7 | 0.00 | 0.00 | 0.00 | 48 | 1014.7 |
| 20260507160612 | 59 | 267 | 1.7 | 2.6 | 0.00 | 0.00 | 0.00 | 48 | 1014.7 |
| 20260507160108 | 59 | 292 | 0.9 | 3.5 | 0.00 | 0.00 | 0.00 | 48 | 1014.8 |
| 20260507155603 | 58 | 296 | 0.9 | 1.7 | 0.00 | 0.00 | 0.00 | 50 | 1014.8 |
| 20260507155101 | 60 | 179 | 2.6 | 7.8 | 0.00 | 0.00 | 0.00 | 46 | 1014.7 |
| 20260507154557 | 60 | 256 | 2.6 | 5.2 | 0.00 | 0.00 | 0.00 | 48 | 1014.9 |
| 20260507154055 | 59 | 39 | 3.5 | 5.2 | 0.00 | 0.00 | 0.00 | 48 | 1014.7 |
| 20260507153551 | 59 | 93 | 0.9 | 2.6 | 0.00 | 0.00 | 0.00 | 49 | 1014.7 |
| 20260507153048 | 58 | 262 | 1.7 | 3.5 | 0.00 | 0.00 | 0.00 | 48 | 1014.9 |
| 20260507152543 | 59 | 280 | 1.7 | 2.6 | 0.00 | 0.00 | 0.00 | 50 | 1014.9 |
| 20260507152040 | 58 | 215 | 1.7 | 5.2 | 0.00 | 0.00 | 0.00 | 52 | 1014.9 |
| 20260507151536 | 58 | 24 | 0.0 | 1.7 | 0.00 | 0.00 | 0.00 | 54 | 1014.8 |
| 20260507151033 | 57 | 349 | 0.0 | 0.9 | 0.00 | 0.00 | 0.00 | 54 | 1015.1 |
| 20260507150530 | 57 | 10 | 0.0 | 6.1 | 0.00 | 0.00 | 0.00 | 52 | 1015.0 |
| 20260507150027 | 58 | 12 | 1.7 | 2.6 | 0.00 | 0.00 | 0.00 | 54 | 1015.0 |
| 20260507145522 | 56 | 173 | 3.5 | 5.2 | 0.00 | 0.00 | 0.00 | 51 | 1015.1 |
| 20260507145020 | 57 | 126 | 3.5 | 7.0 | 0.00 | 0.00 | 0.00 | 54 | 1015.2 |
| 20260507144516 | 57 | 228 | 1.7 | 3.5 | 0.00 | 0.00 | 0.00 | 56 | 1015.4 |
| 20260507144014 | 57 | 284 | 0.9 | 2.6 | 0.00 | 0.00 | 0.00 | 57 | 1015.5 |
| 20260507143511 | 57 | 212 | 1.7 | 5.2 | 0.00 | 0.00 | 0.00 | 58 | 1015.4 |
| 20260507143008 | 56 | 99 | 1.7 | 7.0 | 0.00 | 0.00 | 0.00 | 61 | 1015.5 |
| 20260507142503 | 57 | 193 | 3.5 | 5.2 | 0.00 | 0.00 | 0.00 | 61 | 1015.7 |
| 20260507142001 | 56 | 261 | 0.0 | 0.9 | 0.00 | 0.00 | 0.00 | 63 | 1015.7 |
| 20260507141456 | 57 | 254 | 1.7 | 2.6 | 0.00 | 0.00 | 0.00 | 64 | 1015.6 |
| 20260507140953 | 56 | 144 | 1.7 | 3.5 | 0.00 | 0.00 | 0.00 | 65 | 1015.8 |
| 20260507140450 | 56 | 100 | 2.6 | 2.6 | 0.00 | 0.00 | 0.00 | 66 | 1015.9 |
| 20260507135948 | 55 | 173 | 0.9 | 5.2 | 0.00 | 0.00 | 0.00 | 68 | 1016.0 |
| 20260507135444 | 54 | 142 | 2.6 | 7.0 | 0.00 | 0.00 | 0.00 | 70 | 1016.0 |
| 20260507134942 | 54 | 129 | 1.7 | 3.5 | 0.00 | 0.00 | 0.00 | 74 | 1016.1 |
| 20260507134438 | 53 | 178 | 1.7 | 5.2 | 0.00 | 0.00 | 0.00 | 77 | 1016.4 |
| 20260507133934 | 53 | 156 | 1.7 | 2.6 | 0.00 | 0.00 | 0.00 | 80 | 1016.1 |
| 20260507133430 | 52 | 113 | 1.7 | 6.1 | 0.00 | 0.00 | 0.00 | 83 | 1016.3 |
| 20260507132929 | 51 | 124 | 2.6 | 5.2 | 0.00 | 0.00 | 0.00 | 86 | 1016.3 |
| 20260507132425 | 51 | 136 | 1.7 | 3.5 | 0.00 | 0.00 | 0.00 | 87 | 1016.2 |
| 20260507131921 | 49 | 85 | 3.5 | 6.1 | 0.00 | 0.00 | 0.00 | 89 | 1016.4 |
| 20260507131418 | 49 | 112 | 2.6 | 7.0 | 0.00 | 0.00 | 0.00 | 90 | 1016.3 |
| 20260507130915 | 49 | 116 | 0.0 | 6.1 | 0.00 | 0.00 | 0.00 | 91 | 1016.4 |
| 20260507130412 | 48 | 127 | 2.6 | 5.2 | 0.00 | 0.00 | 0.00 | 92 | 1016.5 |
| 20260507125911 | 47 | 116 | 2.6 | 3.5 | 0.00 | 0.00 | 0.00 | 92 | 1016.4 |
| 20260507125409 | 47 | 129 | 2.6 | 5.2 | 0.00 | 0.00 | 0.00 | 93 | 1016.5 |
| 20260507124906 | 46 | 93 | 2.6 | 3.5 | 0.00 | 0.00 | 0.00 | 93 | 1016.2 |
| 20260507124402 | 46 | 105 | 1.7 | 3.5 | 0.00 | 0.00 | 0.00 | 94 | 1016.3 |
| 20260507123901 | 45 | 104 | 3.5 | 3.5 | 0.00 | 0.00 | 0.00 | 94 | 1016.5 |
| 20260507123357 | 45 | 117 | 2.6 | 3.5 | 0.00 | 0.00 | 0.00 | 94 | 1016.4 |
| 20260507122853 | 44 | 114 | 1.7 | 3.5 | 0.00 | 0.00 | 0.00 | 94 | 1016.5 |
| 20260507122349 | 44 | 105 | 2.6 | 3.5 | 0.00 | 0.00 | 0.00 | 94 | 1016.5 |
| 20260507121845 | 43 | 118 | 2.6 | 5.2 | 0.00 | 0.00 | 0.00 | 94 | 1016.4 |
| 20260507121341 | 43 | 111 | 3.5 | 5.2 | 0.00 | 0.00 | 0.00 | 94 | 1016.4 |
| 20260507120838 | 43 | 113 | 2.6 | 2.6 | 0.00 | 0.00 | 0.00 | 95 | 1016.4 |
| 20260507120334 | 43 | 135 | 0.9 | 2.6 | 0.00 | 0.00 | 0.00 | 95 | 1016.5 |
| 20260507115831 | 42 | 102 | 0.9 | 3.5 | 0.00 | 0.00 | 0.00 | 95 | 1016.6 |
| 20260507115326 | 42 | 123 | 1.7 | 2.6 | 0.00 | 0.00 | 0.00 | 95 | 1016.5 |
| 20260507114822 | 42 | 115 | 2.6 | 2.6 | 0.00 | 0.00 | 0.00 | 95 | 1016.4 |
| 20260507114320 | 42 | 125 | 1.7 | 2.6 | 0.00 | 0.00 | 0.00 | 95 | 1016.7 |
| 20260507113817 | 41 | 131 | 0.9 | 2.6 | 0.00 | 0.00 | 0.00 | 95 | 1016.5 |
| 20260507113314 | 41 | 114 | 2.6 | 3.5 | 0.00 | 0.00 | 0.00 | 95 | 1016.5 |
| 20260507112811 | 41 | 115 | 1.7 | 2.6 | 0.00 | 0.00 | 0.00 | 95 | 1016.5 |
| 20260507112308 | 40 | 62 | 0.0 | 0.0 | 0.00 | 0.00 | 0.00 | 95 | 1016.3 |
| 20260507111806 | 40 | 23 | 0.0 | 0.0 | 0.00 | 0.00 | 0.00 | 95 | 1016.4 |
| 20260507111302 | 39 | 23 | 0.0 | 0.0 | 0.00 | 0.00 | 0.00 | 95 | 1016.3 |
| 20260507110758 | 39 | 23 | 0.0 | 0.0 | 0.00 | 0.00 | 0.00 | 95 | 1016.3 |
| 20260507110255 | 39 | 23 | 0.0 | 0.0 | 0.00 | 0.00 | 0.00 | 95 | 1016.2 |
| 20260507105752 | 38 | 23 | 0.0 | 0.0 | 0.00 | 0.00 | 0.00 | 95 | 1016.1 |
| 20260507105248 | 38 | 23 | 0.0 | 0.0 | 0.00 | 0.00 | 0.00 | 95 | 1016.0 |
| 20260507104745 | 38 | 23 | 0.0 | 0.0 | 0.00 | 0.00 | 0.00 | 95 | 1016.1 |
| 20260507104242 | 39 | 23 | 0.0 | 0.0 | 0.00 | 0.00 | 0.00 | 94 | 1016.1 |
| 20260507103738 | 38 | 23 | 0.0 | 0.0 | 0.00 | 0.00 | 0.00 | 94 | 1016.1 |
| 20260507103234 | 38 | 23 | 0.0 | 0.0 | 0.00 | 0.00 | 0.00 | 94 | 1016.0 |
| 20260507102731 | 38 | 23 | 0.0 | 0.0 | 0.00 | 0.00 | 0.00 | 94 | 1015.9 |
| 20260507102227 | 39 | 23 | 0.0 | 0.0 | 0.00 | 0.00 | 0.00 | 94 | 1016.0 |
| 20260507101723 | 39 | 23 | 0.0 | 0.0 | 0.00 | 0.00 | 0.00 | 94 | 1016.0 |
| 20260507101219 | 38 | 23 | 0.0 | 0.0 | 0.00 | 0.00 | 0.00 | 94 | 1016.1 |
| 20260507100716 | 38 | 23 | 0.0 | 0.0 | 0.00 | 0.00 | 0.00 | 94 | 1016.0 |
| 20260507100215 | 39 | 23 | 0.0 | 0.0 | 0.00 | 0.00 | 0.00 | 94 | 1016.0 |
| 20260507095712 | 39 | 23 | 0.0 | 0.0 | 0.00 | 0.00 | 0.00 | 94 | 1015.9 |
| 20260507095208 | 39 | 23 | 0.0 | 0.0 | 0.00 | 0.00 | 0.00 | 94 | 1015.8 |
| 20260507094705 | 39 | 23 | 0.0 | 0.0 | 0.00 | 0.00 | 0.00 | 93 | 1015.7 |
| 20260507094202 | 39 | 25 | 0.0 | 0.0 | 0.00 | 0.00 | 0.00 | 93 | 1015.9 |
| 20260507093659 | 39 | 26 | 0.0 | 0.0 | 0.00 | 0.00 | 0.00 | 93 | 1015.8 |
| 20260507093158 | 39 | 26 | 0.0 | 0.0 | 0.00 | 0.00 | 0.00 | 93 | 1015.7 |
| 20260507092654 | 39 | 27 | 0.0 | 0.0 | 0.00 | 0.00 | 0.00 | 93 | 1015.7 |
| 20260507092151 | 39 | 27 | 0.0 | 0.0 | 0.00 | 0.00 | 0.00 | 93 | 1015.7 |
| 20260507091647 | 40 | 27 | 0.0 | 0.0 | 0.00 | 0.00 | 0.00 | 93 | 1015.8 |
| 20260507091144 | 40 | 27 | 0.0 | 0.0 | 0.00 | 0.00 | 0.00 | 93 | 1015.7 |
| 20260507090639 | 39 | 30 | 0.0 | 0.0 | 0.00 | 0.00 | 0.00 | 93 | 1015.7 |
| 20260507090137 | 40 | 30 | 0.0 | 0.0 | 0.00 | 0.00 | 0.00 | 93 | 1015.7 |
| 20260507085634 | 40 | 30 | 0.0 | 0.0 | 0.00 | 0.00 | 0.00 | 92 | 1015.8 |
| 20260507085130 | 40 | 30 | 0.0 | 0.0 | 0.00 | 0.00 | 0.00 | 92 | 1015.9 |
| 20260507084627 | 40 | 32 | 0.0 | 0.0 | 0.00 | 0.00 | 0.00 | 92 | 1015.6 |
| 20260507084124 | 40 | 33 | 0.0 | 0.0 | 0.00 | 0.00 | 0.00 | 92 | 1015.9 |
| 20260507083621 | 40 | 33 | 0.0 | 0.0 | 0.00 | 0.00 | 0.00 | 92 | 1016.0 |
| 20260507083118 | 40 | 33 | 0.0 | 0.0 | 0.00 | 0.00 | 0.00 | 92 | 1016.0 |
| 20260507082613 | 40 | 33 | 0.0 | 0.0 | 0.00 | 0.00 | 0.00 | 92 | 1016.0 |
| 20260507082110 | 41 | 33 | 0.0 | 0.0 | 0.00 | 0.00 | 0.00 | 91 | 1016.0 |
| 20260507081607 | 41 | 33 | 0.0 | 0.0 | 0.00 | 0.00 | 0.00 | 91 | 1015.8 |
| 20260507081103 | 41 | 33 | 0.0 | 0.0 | 0.00 | 0.00 | 0.00 | 91 | 1015.8 |
| 20260507080559 | 41 | 33 | 0.0 | 0.0 | 0.00 | 0.00 | 0.00 | 91 | 1015.7 |
| 20260507080056 | 41 | 33 | 0.0 | 0.0 | 0.00 | 0.00 | 0.00 | 91 | 1015.8 |
| 20260507075551 | 41 | 33 | 0.0 | 0.0 | 0.00 | 0.00 | 0.00 | 91 | 1015.9 |
| 20260507075048 | 41 | 34 | 0.0 | 0.0 | 0.00 | 0.00 | 0.00 | 90 | 1015.7 |
| 20260507074544 | 41 | 34 | 0.0 | 0.0 | 0.00 | 0.00 | 0.00 | 90 | 1015.6 |
| 20260507074043 | 41 | 34 | 0.0 | 0.0 | 0.00 | 0.00 | 0.00 | 90 | 1015.7 |
| 20260507073539 | 42 | 34 | 0.0 | 0.0 | 0.00 | 0.00 | 0.00 | 90 | 1015.8 |